Location: Hengforden
(52.3167°N, 6.1333°E)
Time: 16:11:26
(UTC+00:00)

Meteor 2-5 Rocket - Pass Details

Date: 14 June 2025
Orbit: 831 x 911 km, 81.2° (Epoch: 19 July)

Event Time Altitude Azimuth Distance (km) Brightness Sun altitude
Exits shadow 23:27:49 21° 173° (S) 1,941 4.9 -14.4°
Maximum altitude 23:31:52 63° 97° (E) 1,012 4.0 -14.4°
Drops below altitude 10° 23:37:45 10° 18° (NNE) 2,610 7.5 -14.4°
Sets 23:40:15 0° 16° (NNE) 3,551 8.6 -14.4°
